When you browse on this site, cookies collect data to enhance your experience and personalize the content and advertising you see.
Visit our Privacy Policy to learn more. By continuing to use the site, you agree to this use of cookies and data.
  • In Österreich
  • Länderverzeichnis
  • Für 7 Tage
  • Wassertemperatur
  • Satellitenkarten
  • Wetterkarte
  • News
  • Widgets
  • user-avatar
    Anmelden

    Stündliche Wetter Scharan

    Heute, 21 April, Sonntag

    Zeit Temperatur Niederschläge Wind Luftdruck Luftfeuchtigkeit
    00:00 +16°C° 0 mm 3 m/S 587 mmHg 43%
    01:00 +15°C° 0 mm 2 m/S 587 mmHg 45%
    02:00 +15°C° 0 mm 2 m/S 586 mmHg 48%
    03:00 +14°C° 0 mm 1 m/S 586 mmHg 51%
    04:00 +14°C° 0 mm 1 m/S 586 mmHg 53%
    05:00 +13°C° 0 mm 1 m/S 585 mmHg 54%
    06:00 +14°C° 0 mm 1 m/S 586 mmHg 49%
    07:00 +15°C° 0 mm 1 m/S 586 mmHg 44%
    08:00 +15°C° 0 mm 1 m/S 587 mmHg 40%
    09:00 +18°C° 0 mm 1 m/S 587 mmHg 36%
    10:00 +18°C° 0 mm 2 m/S 588 mmHg 31%
    11:00 +20°C° 0 mm 2 m/S 588 mmHg 27%
    12:00 +21°C° 0 mm 3 m/S 588 mmHg 25%
    13:00 +21°C° 0 mm 3 m/S 589 mmHg 22%
    14:00 +22°C° 0 mm 3 m/S 589 mmHg 20%
    15:00 +23°C° 0 mm 4 m/S 589 mmHg 18%
    16:00 +23°C° 0 mm 4 m/S 588 mmHg 17%
    17:00 +23°C° 0 mm 4 m/S 588 mmHg 16%
    18:00 +22°C° 0 mm 5 m/S 588 mmHg 19%
    19:00 +21°C° 0 mm 5 m/S 588 mmHg 21%
    20:00 +20°C° 0 mm 6 m/S 588 mmHg 24%
    21:00 +20°C° 0 mm 6 m/S 588 mmHg 26%
    22:00 +19°C° 0 mm 5 m/S 588 mmHg 27%
    23:00 +17°C° 0 mm 5 m/S 588 mmHg 29%

    Morgen, 22 April, Montag

    Zeit Temperatur Niederschläge Wind Luftdruck Luftfeuchtigkeit
    00:00 +18°C° 0 mm 4 m/S 587 mmHg 31%
    01:00 +17°C° 0 mm 3 m/S 587 mmHg 33%
    02:00 +16°C° 0 mm 2 m/S 587 mmHg 35%
    03:00 +16°C° 0 mm 1 m/S 586 mmHg 36%
    04:00 +15°C° 0 mm 1 m/S 586 mmHg 37%
    05:00 +15°C° 0 mm 1 m/S 586 mmHg 38%
    06:00 +15°C° 0 mm 1 m/S 587 mmHg 35%
    07:00 +16°C° 0 mm 1 m/S 587 mmHg 33%
    08:00 +18°C° 0 mm 1 m/S 588 mmHg 31%
    09:00 +19°C° 0 mm 1 m/S 588 mmHg 29%
    10:00 +19°C° 0 mm 2 m/S 589 mmHg 26%
    11:00 +20°C° 0 mm 2 m/S 589 mmHg 24%
    12:00 +21°C° 0 mm 2 m/S 590 mmHg 21%
    13:00 +23°C° 0 mm 2 m/S 590 mmHg 19%
    14:00 +24°C° 0 mm 2 m/S 590 mmHg 16%
    15:00 +24°C° 0 mm 2 m/S 590 mmHg 15%
    16:00 +25°C° 0 mm 3 m/S 590 mmHg 13%
    17:00 +25°C° 0 mm 3 m/S 589 mmHg 11%
    18:00 +23°C° 0 mm 4 m/S 590 mmHg 14%
    19:00 +22°C° 0 mm 5 m/S 590 mmHg 17%
    20:00 +21°C° 0 mm 5 m/S 590 mmHg 20%
    21:00 +21°C° 0 mm 5 m/S 590 mmHg 23%
    22:00 +20°C° 0 mm 5 m/S 590 mmHg 26%
    23:00 +19°C° 0 mm 5 m/S 590 mmHg 28%

    übermorgen, 23 April, Dienstag

    Zeit Temperatur Niederschläge Wind Luftdruck Luftfeuchtigkeit
    00:00 +19°C° 0 mm 4 m/S 589 mmHg 30%
    01:00 +18°C° 0 mm 3 m/S 589 mmHg 32%
    02:00 +19°C° 0 mm 1 m/S 589 mmHg 34%
    03:00 +17°C° 0 mm 2 m/S 589 mmHg 33%
    04:00 +17°C° 0 mm 2 m/S 588 mmHg 33%
    05:00 +17°C° 0 mm 3 m/S 588 mmHg 32%
    06:00 +18°C° 0 mm 3 m/S 589 mmHg 31%
    07:00 +18°C° 0 mm 3 m/S 589 mmHg 30%
    08:00 +19°C° 0 mm 3 m/S 590 mmHg 29%
    09:00 +20°C° 0 mm 4 m/S 590 mmHg 28%
    10:00 +21°C° 0 mm 5 m/S 591 mmHg 27%
    11:00 +22°C° 0 mm 6 m/S 591 mmHg 25%
    12:00 +23°C° 0 mm 7 m/S 591 mmHg 24%
    13:00 +23°C° 0 mm 8 m/S 591 mmHg 23%
    14:00 +24°C° 0 mm 8 m/S 591 mmHg 22%
    15:00 +24°C° 0 mm 8 m/S 591 mmHg 22%
    16:00 +24°C° 0 mm 8 m/S 591 mmHg 21%
    17:00 +24°C° 0 mm 8 m/S 590 mmHg 21%
    18:00 +23°C° 0 mm 7 m/S 590 mmHg 25%
    19:00 +22°C° 0 mm 5 m/S 590 mmHg 28%
    20:00 +21°C° 0 mm 3 m/S 590 mmHg 31%
    21:00 +20°C° 0.4 mm 3 m/S 590 mmHg 36%
    22:00 +19°C° 0.4 mm 3 m/S 590 mmHg 41%
    23:00 +19°C° 0.4 mm 3 m/S 589 mmHg 46%

    24 April, Mittwoch

    Zeit Temperatur Niederschläge Wind Luftdruck Luftfeuchtigkeit
    00:00 +18°C° 0.2 mm 4 m/S 589 mmHg 47%
    01:00 +18°C° 0.2 mm 4 m/S 589 mmHg 48%
    02:00 +17°C° 0.2 mm 4 m/S 588 mmHg 50%
    03:00 +17°C° 0.2 mm 4 m/S 588 mmHg 53%
    04:00 +16°C° 0.2 mm 3 m/S 588 mmHg 56%
    05:00 +16°C° 0.2 mm 3 m/S 588 mmHg 59%
    06:00 +15°C° 0.2 mm 4 m/S 588 mmHg 57%
    07:00 +17°C° 0.2 mm 4 m/S 588 mmHg 55%
    08:00 +17°C° 0.2 mm 4 m/S 589 mmHg 53%
    09:00 +15°C° 1.5 mm 6 m/S 588 mmHg 59%
    10:00 +15°C° 1.5 mm 7 m/S 588 mmHg 64%
    11:00 +13°C° 1.5 mm 8 m/S 588 mmHg 69%
    12:00 +16°C° 0.6 mm 8 m/S 588 mmHg 60%
    13:00 +17°C° 0.6 mm 8 m/S 588 mmHg 51%
    14:00 +20°C° 0.6 mm 8 m/S 589 mmHg 42%
    15:00 +19°C° 0.3 mm 9 m/S 588 mmHg 39%
    16:00 +21°C° 0.3 mm 10 m/S 588 mmHg 36%
    17:00 +21°C° 0.3 mm 11 m/S 587 mmHg 34%
    18:00 +19°C° 0 mm 10 m/S 587 mmHg 32%
    19:00 +17°C° 0 mm 9 m/S 587 mmHg 31%
    20:00 +16°C° 0 mm 9 m/S 587 mmHg 30%
    21:00 +15°C° 0 mm 8 m/S 587 mmHg 33%
    22:00 +14°C° 0 mm 7 m/S 587 mmHg 36%
    23:00 +13°C° 0 mm 6 m/S 586 mmHg 38%

    25 April, Donnerstag

    Zeit Temperatur Niederschläge Wind Luftdruck Luftfeuchtigkeit
    00:00 +13°C° 0 mm 6 m/S 586 mmHg 41%
    01:00 +12°C° 0 mm 5 m/S 585 mmHg 45%
    02:00 +10°C° 0 mm 5 m/S 585 mmHg 48%
    03:00 +10°C° 0 mm 5 m/S 585 mmHg 48%
    04:00 +9°C° 0 mm 5 m/S 585 mmHg 48%
    05:00 +9°C° 0 mm 5 m/S 585 mmHg 48%
    06:00 +10°C° 0 mm 5 m/S 585 mmHg 43%
    07:00 +10°C° 0 mm 5 m/S 586 mmHg 38%
    08:00 +11°C° 0 mm 6 m/S 587 mmHg 33%
    09:00 +13°C° 0 mm 6 m/S 588 mmHg 29%
    10:00 +15°C° 0 mm 7 m/S 588 mmHg 25%
    11:00 +16°C° 0 mm 7 m/S 589 mmHg 21%
    12:00 +17°C° 0 mm 8 m/S 589 mmHg 21%
    13:00 +18°C° 0 mm 8 m/S 589 mmHg 21%
    14:00 +19°C° 0 mm 9 m/S 589 mmHg 21%
    15:00 +19°C° 0 mm 9 m/S 588 mmHg 20%
    16:00 +18°C° 0 mm 9 m/S 588 mmHg 20%
    17:00 +18°C° 0 mm 9 m/S 588 mmHg 20%
    18:00 +17°C° 0 mm 8 m/S 588 mmHg 23%
    19:00 +16°C° 0 mm 7 m/S 587 mmHg 26%
    20:00 +15°C° 0 mm 6 m/S 587 mmHg 28%
    21:00 +14°C° 0 mm 5 m/S 587 mmHg 31%
    22:00 +13°C° 0 mm 4 m/S 587 mmHg 33%
    23:00 +12°C° 0 mm 3 m/S 587 mmHg 35%

    26 April, Freitag

    Zeit Temperatur Niederschläge Wind Luftdruck Luftfeuchtigkeit
    00:00 +12°C° 0 mm 3 m/S 587 mmHg 37%
    01:00 +12°C° 0 mm 2 m/S 586 mmHg 39%
    02:00 +10°C° 0 mm 2 m/S 586 mmHg 41%
    03:00 +10°C° 0 mm 2 m/S 585 mmHg 42%
    04:00 +10°C° 0 mm 1 m/S 585 mmHg 43%
    05:00 +10°C° 0 mm 1 m/S 585 mmHg 43%
    06:00 +11°C° 0 mm 1 m/S 586 mmHg 40%
    07:00 +11°C° 0 mm 1 m/S 586 mmHg 36%
    08:00 +12°C° 0 mm 1 m/S 587 mmHg 32%
    09:00 +14°C° 0 mm 2 m/S 588 mmHg 29%
    10:00 +14°C° 0 mm 3 m/S 588 mmHg 26%
    11:00 +17°C° 0 mm 4 m/S 589 mmHg 23%
    12:00 +17°C° 0 mm 5 m/S 589 mmHg 21%
    13:00 +19°C° 0 mm 6 m/S 589 mmHg 19%
    14:00 +20°C° 0 mm 7 m/S 589 mmHg 18%
    15:00 +20°C° 0 mm 7 m/S 588 mmHg 18%
    16:00 +20°C° 0 mm 7 m/S 588 mmHg 18%
    17:00 +20°C° 0 mm 7 m/S 588 mmHg 18%
    18:00 +18°C° 0 mm 7 m/S 588 mmHg 21%
    19:00 +17°C° 0 mm 6 m/S 588 mmHg 24%
    20:00 +16°C° 0 mm 5 m/S 587 mmHg 27%
    21:00 +15°C° 0 mm 4 m/S 587 mmHg 29%
    22:00 +14°C° 0 mm 4 m/S 587 mmHg 31%
    23:00 +13°C° 0 mm 3 m/S 587 mmHg 33%
    Mehr zeigen